[Iaude] MPEC C127: 2024 CU2 [a=1.36,e=0.29,i=20.2,H=23.3]

mpec at cfa.harvard.edu mpec at cfa.harvard.edu
Mon Feb 12 06:57:13 EST 2024


M.P.E.C. 2024-C127                            Issued 2024 February 12, 11:55 UT

     The Minor Planet Electronic Circulars contain information on unusual
         minor planets, routine data on comets and natural satellites,
         and occasional editorial announcements.  They are published
    on behalf of Division F of the International Astronomical Union by the
          Minor Planet Center, Smithsonian Astrophysical Observatory,
                          Cambridge, MA 02138, U.S.A.
			  
             Prepared using the Tamkin Foundation Computer Network

                              MPC at CFA.HARVARD.EDU
            URL https://www.minorplanetcenter.net/    ISSN 1523-6714

                                    2024 CU2                                    


Observations:
     K24C02U* C2024 02 08.30931708 33 28.277+34 03 58.04         21.19wXEC127F52
     K24C02U  C2024 02 08.32162708 33 25.577+34 02 33.11         20.97wXEC127F52
     K24C02U  C2024 02 08.34629408 33 20.078+33 59 41.93         21.22wXEC127F52
     K24C02U  C2024 02 08.46280108 32 54.119+33 46 08.71         20.72GVEC127F52
     K24C02U  C2024 02 08.46344608 32 53.955+33 46 03.87         20.95GVEC127F52
     K24C02U KB2024 02 09.20104 08 30 33.415+32 21 13.64         20.7 GXEC127H36
     K24C02U KB2024 02 09.21139 08 30 31.298+32 20 03.16         20.6 GXEC127H36
     K24C02U  C2024 02 09.21611908 30 29.04 +32 20 16.0                WEC127X09
     K24C02U  C2024 02 09.22659108 30 26.85 +32 19 04.8                WEC127X09
     K24C02U KB2024 02 09.29103 08 30 15.17 +32 11 02.0          20.4 GVEC127734
     K24C02U KB2024 02 09.30829 08 30 11.71 +32 09 04.5          20.3 GVEC127734
     K24C02U KB2024 02 09.32535 08 30 08.26 +32 07 09.2          20.3 GVEC127734
     K24C02U  C2024 02 09.32707608 30 11.049+32 07 11.15         20.67GVEC127F52
     K24C02U  C2024 02 09.32789508 30 10.880+32 07 05.54         20.91GVEC127F52
     K24C02U KB2024 02 12.03495 08 22 51.72 +27 16 56.2                VEC127204
     K24C02U KB2024 02 12.05858 08 22 48.15 +27 14 31.3          20.8 GVEC127204
     K24C02U KC2024 02 12.13426308 22 40.24 +27 07 00.6          21.4 GVEC127H21
     K24C02U KC2024 02 12.15104808 22 37.64 +27 05 19.5          21.4 GVEC127H21
     K24C02U KC2024 02 12.15524308 22 37.03 +27 04 54.4          21.1 GVEC127H21

Observer details:
204 Schiaparelli Observatory.  Observer L. Buzzi.  0.84-m f/3.5 reflector +
    CMO.
734 Farpoint Observatory, Eskridge.  Observers D. Cromer, G. Hug, D. Goodin,
    R. Valentine.  Measurer D. Cromer.  0.69-m f/3.54 reflector + CMO.
F52 Pan-STARRS 2, Haleakala.  Observers J. Herman, T. Lowe, P. Minguez, A.
    Schultz, I. Smith.  Measurers K. Chambers, T. de Boer, J. Fairlamb, H.
    Gao, M. Huber, C.-C. Lin, E. Magnier, Y. Ramanjooloo, R. Wainscoat, R.
    Weryk.  1.8-m Ritchey-Chretien + CCD.
H21 Astronomical Research Observatory, Westfield.  Observer R. Holmes.
    Measurers T. Linder, R. Holmes, L. Horn.  0.76-m f/3.0 astrograph + CCD.
H36 Sandlot Observatory, Scranton.  Observer G. Hug.  0.56-m f/4.8 reflector +
    CMO.
X09 Deep Random Survey, Rio Hurtado.  Observers A. Schnabel, D. Ruhela.
    Measurer S. Deen.  0.43-m reflector + CMOS.

Orbital elements:
2024 CU2                                                 Earth MOID = 0.1640 AU
Epoch 2023 Sept. 13.0 TT = JDT 2460200.5                Veres                   
M 313.16762              (2000.0)            P               Q                  
n   0.61947892     Peri.   98.17445     +0.45183925     -0.86702617             
a   1.3628614      Node   322.55818     +0.61995936     +0.47445846             
e   0.2896860      Incl.   20.20909     +0.64147618     +0.15216697             
P   1.59           H   23.39          G   0.15           U   8                  
Residuals in seconds of arc
240208 F52  0.4-  0.0     240209 X09  0.2+  0.5-    240212 204  0.0   0.1-
240208 F52  0.0   0.2+    240209 X09  0.4-  0.1-    240212 204  0.1-  0.2-
240208 F52  0.1-  0.0     240209 734  0.1+  0.1-    240212 H21  0.1+  0.1+
240208 F52  0.3+  0.1+    240209 734  0.1+  0.1+    240212 H21  0.3-  0.0
240208 F52  0.1+  0.2-    240209 734  0.4-  1.3+    240212 H21  0.2+  0.1+
240209 H36  0.1+  0.3+    240209 F52  0.0   0.0
240209 H36  0.1-  0.1-    240209 F52  0.0   0.1-

Ephemeris:
2024 CU2                 a,e,i = 1.36, 0.29, 20                  q = 0.9681
Date    TT    R. A. (2000) Decl.     Delta      r    Elong.  Phase     V
2024 01 13    14 23 47.5 +71 52 15   0.1963  1.0571   106.8    62.9    22.2
...
2024 01 28    09 44 30.0 +57 58 51   0.1651  1.1140   138.7    35.7    21.2
...
2024 02 05    08 46 40.7 +40 48 56   0.1756  1.1473   154.9    21.4    21.0
...
2024 02 11    08 25 26.2 +29 04 23   0.1981  1.1731   158.2    18.2    21.2
2024 02 12    08 22 58.1 +27 20 50   0.2029  1.1774   157.8    18.4    21.2
2024 02 13    08 20 44.3 +25 41 38   0.2080  1.1818   157.3    18.8    21.3
...
2024 02 19    08 11 23.7 +17 15 46   0.2436  1.2082   151.6    22.9    21.8
...
2024 02 27    08 06 26.7 +09 24 04   0.3015  1.2438   142.9    28.7    22.5
...
2024 03 13    08 10 14.5 +01 07 51   0.4309  1.3104   129.4    35.9    23.6

M. P. C. Staff               (C) Copyright 2024 MPC           M.P.E.C. 2024-C127





More information about the Iaude mailing list